Location: Orange Harbor Mobile Home Park
(26.6923°N, 81.7937°W)
Time: 22:26:35
(UTC+00:00)

Cosmos 1513 Rocket - Pass Details

Date: 19 September 2020
Orbit: 939 x 1009 km, 82.9° (Epoch: 25 October)

Event Time Altitude Azimuth Distance (km) Brightness Sun altitude
Rises 00:41:19 0° 183° (S) 3,709 7.5 -17.2°
Reaches altitude 10° 00:43:51 10° 182° (S) 2,755 6.8 -17.8°
Maximum altitude 00:50:11 87° 94° (E) 991 4.4 -19.2°
Drops below altitude 10° 00:56:26 10° 6° (N) 2,721 6.9 -20.5°
Sets 00:58:56 0° 6° (N) 3,660 7.6 -21.1°
